BREEZE-KM DEB, 41721

Orbit data source: Space-Track

BREEZE-KM DEB, 41721 is space debris in LEO originally from a launch on Tue, 31 Mar 2015 UTC launched from the Plesetsk Missile And Space Complex (PKMTR). Debris objects in space refer to the collection of defunct objects orbiting the Earth. Examples of debris include non-operational satellites, rocket bodies, and fragments generated from explosions, collisions, or faulty payload assembly.

Loading next visibility...
Identifier
41721, 2015-020J
Orbit
LEO
Last TLE update
8 hours ago
Origin
Manufacturer
Khrunichev
Mission
Spacecraft
Bus & Motor
Unknown
Mass
Unknown
Launch date (UTC)
2015-03-31 (10 years ago)
Launch vehicle
Unknown
Launch site
Plesetsk Missile And Space Complex (PKMTR)
Object type
Payload
Rocket body
Debris
Shape & HBR
Unknown
Radar Cross Section
Small (<0.1 m²)

Expand to show TLE details & history

TLE from 8 hours ago
0 BREEZE-KM DEB
1 41721U 15020J   25182.06870675  .00000033  00000-0  96872-4 0  9992
2 41721  82.4919 107.5054 0243497 230.3970 127.5406 12.74719232467454
Epoch: 2025-07-01T01:38Z
TLE epoch observation values (Epoch: 2025-07-01T01:38:56.263Z)
Latitude
0.00008°
Longitude
163.40152°
Altitude
1,483.213 km
Speed
7.068 km/s
True Right ascension
07h 10m 01s
True Declination
0° 00' 00"
Sunlit
Object was in daylight at epoch
Visualization orbit readout
Latitude
-2.96664°
Longitude
162.805°
Altitude
1,477.684 km
Speed
7.073 km/s
Apparent Right ascension
07h 46m 09s
Apparent Declination
-19° 45' 53"
Sunlit
Object is in daylight
Visualization observer readout
Local Sidereal Time
20:48:18
Azimuth
38.024° NE
Elevation
-65.839°
Doppler factor
1
Orbital elements
Apogee altitude
1,548.503 km
Perigee altitude
1,171.656 km
Semi-major axis
7,738.216 km
Eccentricity
0.02435
Inclination
82.4919°
RAAN
107.5054°
Arg. of periapsis
230.397°
True anomaly
Unknown
Mean anomaly
127.5406°
Eccentric anomaly
Unknown
Mean motion
3.18847 °/min
Orbital period
112.91 mins
BSTAR
0.000096872
Loading maneuver chart data...
Loading SW <> Apogee altitude chart data...
Loading historical data...
Loading historical data...
Loading historical data...
Loading historical data...
Loading historical data...
Loading historical data...
Loading historical data...

BREEZE-KM DEB Visibility forecast

Observer location: undefined°, undefined°

Span
Click to sort rows by Start time (UTC) header in descending order
Start Az.
Max El. time (UTC)
Max El. Az.
Max El.
End time (UTC)
End Az.
15 mins2025-07-01 18:42:04.471Z146.921° SSE2025-07-01 18:49:04.471Z88.367° E32.157°2025-07-01 18:57:04.471Z23.075° NE
15 mins2025-07-01 20:36:04.471Z216.814° SW2025-07-01 20:43:04.471Z287.329° WNW36.808°2025-07-01 20:51:04.471Z356.341° N
4 mins2025-07-02 04:42:04.471Z44.979° NE2025-07-02 04:44:04.471Z60.051° ENE12.1°2025-07-02 04:46:04.471Z75.107° E
14 mins2025-07-02 06:33:04.471Z359.53° N2025-07-02 06:39:04.471Z61.549° ENE42.81°2025-07-02 06:47:04.471Z162.899° S
9 mins2025-07-02 08:28:04.471Z317.818° NNW2025-07-02 08:32:04.471Z283.775° WNW20.877°2025-07-02 08:37:04.471Z239.104° WSW
|